Date String (YYYY-MM-DD hh:mm:ss) UTC,Instrument flags,Ambient pressure (hPa),Sample flow (lpm),Bypass flow (lpm),Sample temperature (°C),Ambient temperature (°C),ASC tube jacket temperature (°C),LED temperature (°C),Box temperature (°C),Sample RH (%),Span deviation,Mass concentration (μg/m³),Mass concentration (μg/m³),Mass concentration (μg/m³)
DateTimeUTC,F1_M11,P_M11,Q1_M11,Q2_M11,T1_M11,T2_M11,T3_M11,T4_M11,T5_M11,U1_M11,ZSPAN_M11,X0_M11,X2_M11,X1_M11
2023-02-19 10:00:00,,0819.1,5.01,0.00,22.2,21.5,00.0,31.1,24.0,06.7,0000.0,0008.01,0002.89,0001.81
2023-02-19 10:01:00,,0818.9,5.02,0.00,22.2,21.1,00.0,31.1,23.9,06.8,0000.0,0008.32,0002.86,0001.80
2023-02-19 10:02:00,,0818.8,4.97,0.00,22.2,20.8,00.0,31.1,23.8,06.8,0000.0,0008.39,0002.88,0001.79
2023-02-19 10:03:00,,0818.9,5.00,0.00,22.1,20.7,00.0,31.1,23.8,06.7,0000.0,0008.30,0002.90,0001.78
2023-02-19 10:04:00,,0818.8,5.02,0.00,22.1,20.5,00.0,31.1,23.7,06.6,0000.0,0008.14,0002.95,0001.77
2023-02-19 10:05:00,,0818.8,4.99,0.00,22.1,20.2,00.0,31.1,23.6,06.5,0000.0,0007.99,0002.88,0001.77
2023-02-19 10:06:00,,0818.5,5.01,0.00,22.0,20.0,00.0,31.0,23.5,06.5,0000.0,0008.01,0002.87,0001.76
2023-02-19 10:07:00,,0818.4,5.01,0.00,21.9,19.8,00.0,31.0,23.4,06.5,0000.0,0007.53,0002.88,0001.75
2023-02-19 10:08:00,,0818.5,4.99,0.00,21.9,19.7,00.0,31.0,23.4,06.6,0000.0,0007.06,0002.81,0001.73
2023-02-19 10:09:00,,0818.6,5.00,0.00,21.9,20.4,00.0,30.9,23.5,06.6,0000.0,0006.97,0002.78,0001.72
2023-02-19 10:10:00,,0818.7,5.00,0.00,22.0,21.8,00.0,30.9,23.9,06.6,0000.0,0007.41,0002.78,0001.74
2023-02-19 10:11:00,,0818.6,4.93,0.00,22.1,22.9,00.0,30.9,24.2,06.6,0000.0,0007.81,0002.77,0001.75
2023-02-19 10:12:00,,0818.7,4.98,0.00,22.2,22.7,00.0,30.9,24.2,06.7,0000.0,0007.20,0002.75,0001.74
2023-02-19 10:13:00,,0818.6,5.00,0.00,22.2,22.0,00.0,31.0,24.0,06.8,0000.0,0007.37,0002.75,0001.75
2023-02-19 10:14:00,,0818.7,5.00,0.00,22.1,21.3,00.0,31.0,23.7,06.9,0000.0,0007.05,0002.79,0001.77
2023-02-19 10:15:00,,0818.5,4.99,0.00,22.1,20.9,00.0,31.0,23.6,06.7,0000.0,0006.84,0002.83,0001.80
2023-02-19 10:16:00,,0818.4,4.99,0.00,22.0,20.6,00.0,31.0,23.5,06.8,0000.0,0006.82,0002.85,0001.80
2023-02-19 10:17:00,,0818.2,5.01,0.00,22.0,20.3,00.0,31.0,23.4,06.8,0000.0,0006.79,0002.85,0001.79
2023-02-19 10:18:00,,0818.2,4.99,0.00,21.9,20.1,00.0,31.0,23.3,06.8,0000.0,0006.86,0002.83,0001.80
2023-02-19 10:19:00,,0818.5,4.99,0.00,21.8,19.8,00.0,30.9,23.2,06.9,0000.0,0007.73,0002.93,0001.81
2023-02-19 10:20:00,,0818.6,5.02,0.00,21.7,19.6,00.0,30.9,23.1,06.7,0000.0,0007.91,0003.01,0001.82
2023-02-19 10:21:00,,0818.7,5.00,0.00,21.7,19.5,00.0,30.9,23.1,06.8,0000.0,0007.78,0003.05,0001.81
2023-02-19 10:22:00,,0818.4,5.02,0.00,21.6,19.7,00.0,30.8,23.1,06.9,0000.0,0007.43,0003.08,0001.82
2023-02-19 10:23:00,,0818.5,4.97,0.00,21.7,21.1,00.0,30.7,23.5,07.0,0000.0,0007.99,0003.12,0001.84
2023-02-19 10:24:00,,0818.2,4.96,0.00,21.9,22.4,00.0,30.7,23.8,06.9,0000.0,0008.45,0003.12,0001.84
2023-02-19 10:25:00,,0818.0,4.96,0.00,22.0,22.7,00.0,30.8,24.0,06.8,0000.0,0009.01,0003.11,0001.83
2023-02-19 10:26:00,,0818.1,5.02,0.00,22.0,22.1,00.0,30.8,23.9,06.9,0000.0,0009.03,0003.06,0001.83
2023-02-19 10:27:00,,0818.0,4.99,0.00,22.0,21.5,00.0,30.9,23.7,06.8,0000.0,0009.04,0003.04,0001.83
2023-02-19 10:28:00,,0818.2,5.03,0.00,22.0,21.0,00.0,30.9,23.6,06.8,0000.0,0009.20,0003.06,0001.84
2023-02-19 10:29:00,,0818.2,5.01,0.00,21.9,20.6,00.0,30.9,23.4,06.7,0000.0,0009.16,0003.06,0001.84
2023-02-19 10:30:00,,0818.1,5.00,0.00,21.8,20.3,00.0,30.9,23.3,06.8,0000.0,0008.51,0002.98,0001.83
2023-02-19 10:31:00,,0818.1,5.00,0.00,21.8,20.1,00.0,30.9,23.3,06.8,0000.0,0008.45,0002.89,0001.83
2023-02-19 10:32:00,,0818.1,5.01,0.00,21.7,19.9,00.0,30.8,23.2,06.8,0000.0,0009.07,0002.89,0001.84
2023-02-19 10:33:00,,0818.2,5.02,0.00,21.7,19.7,00.0,30.8,23.2,06.9,0000.0,0009.20,0002.97,0001.85
2023-02-19 10:34:00,,0818.2,5.00,0.00,21.6,19.6,00.0,30.8,23.1,07.0,0000.0,0008.70,0002.99,0001.85
2023-02-19 10:35:00,,0818.2,5.00,0.00,21.6,19.5,00.0,30.8,23.0,07.0,0000.0,0008.16,0002.98,0001.84
2023-02-19 10:36:00,,0818.3,4.99,0.00,21.5,19.4,00.0,30.7,23.0,07.0,0000.0,0007.60,0002.92,0001.82
2023-02-19 10:37:00,,0818.1,5.01,0.00,21.5,20.5,00.0,30.6,23.2,07.0,0000.0,0007.51,0002.92,0001.81
2023-02-19 10:38:00,,0818.1,5.04,0.00,21.7,21.8,00.0,30.6,23.6,06.7,0000.0,0007.59,0002.97,0001.79
2023-02-19 10:39:00,,0818.0,4.93,0.00,21.8,22.7,00.0,30.6,23.9,06.6,0000.0,0007.53,0003.01,0001.80
2023-02-19 10:40:00,,0818.1,4.97,0.00,21.9,22.1,00.0,30.7,23.8,06.7,0000.0,0007.43,0002.99,0001.78
2023-02-19 10:41:00,,0818.0,4.99,0.00,21.9,21.4,00.0,30.7,23.6,06.6,0000.0,0007.47,0002.99,0001.78
2023-02-19 10:42:00,,0818.0,4.98,0.00,21.8,20.9,00.0,30.7,23.4,06.6,0000.0,0007.30,0002.96,0001.76
2023-02-19 10:43:00,,0818.0,5.01,0.00,21.8,20.4,00.0,30.8,23.3,06.8,0000.0,0006.61,0002.91,0001.75
2023-02-19 10:44:00,,0818.0,5.00,0.00,21.7,20.1,00.0,30.7,23.1,06.8,0000.0,0006.48,0002.86,0001.73
2023-02-19 10:45:00,,0818.0,5.00,0.00,21.6,19.8,00.0,30.7,23.1,06.9,0000.0,0006.63,0002.79,0001.72
2023-02-19 10:46:00,,0817.9,5.01,0.00,21.6,19.7,00.0,30.7,23.0,07.0,0000.0,0006.73,0002.79,0001.71
2023-02-19 10:47:00,,0818.0,5.01,0.00,21.5,19.5,00.0,30.7,23.0,06.9,0000.0,0006.72,0002.80,0001.71
2023-02-19 10:48:00,,0817.8,4.99,0.00,21.5,19.5,00.0,30.6,23.0,07.1,0000.0,0006.92,0002.80,0001.71
2023-02-19 10:49:00,,0817.9,5.00,0.00,21.5,19.5,00.0,30.6,23.0,06.9,0000.0,0007.07,0002.80,0001.71
2023-02-19 10:50:00,,0817.8,5.00,0.00,21.5,20.7,00.0,30.5,23.3,07.1,0000.0,0007.37,0002.74,0001.71
2023-02-19 10:51:00,,0817.6,5.02,0.00,21.7,22.0,00.0,30.5,23.7,07.0,0000.0,0008.14,0002.76,0001.71
2023-02-19 10:52:00,,0817.7,5.04,0.00,21.8,22.7,00.0,30.5,23.9,07.0,0000.0,0008.13,0002.76,0001.70
2023-02-19 10:53:00,,0817.8,4.97,0.00,21.9,22.1,00.0,30.6,23.8,07.0,0000.0,0008.24,0002.81,0001.71
2023-02-19 10:54:00,,0817.7,5.02,0.00,21.9,21.5,00.0,30.7,23.7,07.0,0000.0,0008.12,0002.87,0001.71
2023-02-19 10:55:00,,0817.7,4.99,0.00,21.8,21.0,00.0,30.7,23.5,07.0,0000.0,0008.14,0002.90,0001.72
2023-02-19 10:56:00,,0817.8,4.96,0.00,21.8,20.6,00.0,30.7,23.4,06.8,0000.0,0008.13,0002.98,0001.72
2023-02-19 10:57:00,,0817.7,5.00,0.00,21.8,20.3,00.0,30.7,23.3,06.9,0000.0,0007.95,0002.95,0001.72
2023-02-19 10:58:00,,0817.6,5.00,0.00,21.7,20.1,00.0,30.7,23.3,06.9,0000.0,0007.85,0002.95,0001.73
2023-02-19 10:59:00,,0817.6,5.00,0.00,21.7,19.9,00.0,30.7,23.2,07.0,0000.0,0007.86,0002.96,0001.74
